BADR-4

Last updated on Wed May 14 2025 00:02:41 GMT+0000 (Coordinated Universal Time)

1 29526U 06051A 25133.59930788 .00000162 00000+0 00000+0 0 9996 2 29526 0.9723 85.1617 0005116 309.1961 79.2356 1.00271600 47265
UTC large
Height (km)
Speed (km/s)
/
Latitude / Longitude
Inclination (degrees)
Orbital Period (minutes)
Azimuth
Elevation
Range (km)
Doppler Factor

Next 0 passes for location: London (51.5072 / 0.1276)

Sorry there are no passes over London.